Regional Weather Roundup
Issued by NWS

Home | Current Version | Previous Version | Text Only | Print | Product List | Glossary Off
Versions: 1 2 3 4 5 6 7 8 9 10 11 12 13 14 15 16 17 18 19 20 21 22 23 24 25 26 27 28 29 30 31 32 33 34 35 36 37 38 39 40 41 42 43 44 45 46 47 48 49 50

000
ASUS43 KDMX 220006
RWRIA

WEATHER ROUNDUP FOR IOWA
NATIONAL WEATHER SERVICE DES MOINES IA
700 PM CDT THU SEP 21 2017

NOTE: "FAIR" INDICATES FEW OR NO CLOUDS BELOW 12,000 FEET WITH NO
SIGNIFICANT WEATHER AND/OR OBSTRUCTIONS TO VISIBILITY.

* - THESE STATIONS ARE NOT NWS STATIONS...THUS NOT UNDER NWS
QUALITY CONTROL.  THEY ALSO DO NOT REPORT WEATHER SUCH
AS PRECIPITATION OR FOG.

IAZ001>003-012>014-020>022-031>034-043>046-220100-
   NORTHWEST IOWA

CITY           SKY/WX    TMP DP  RH WIND       PRES   REMARKS
CARROLL *      CLEAR     86  73  66 S13G22    29.77S HX  93
CHEROKEE *     CLEAR     82  74  76 S9        29.74R HX  89
DENISON *      CLEAR     84  73  70 S14       29.77R HX  91
LE MARS *      CLEAR     86  73  66 S14       29.71R HX  93
ORANGE CITY *  CLEAR     84  75  74 S9        29.73R HX  92
SHELDON *      CLEAR     82  73  74 SE10G18   29.72S HX  88
SIOUX CITY     CLEAR     86  73  65 S9        29.70S HX  93
6HR MIN TEMP:  83; 6HR MAX TEMP:  89;

SPENCER        CLEAR     83  71  67 S10G22    29.76R HX  87
6HR MIN TEMP:  80; 6HR MAX TEMP:  86;

STORM LAKE *   CLEAR     82  72  69 S15       29.76S HX  87
$$

IAZ055>058-069>071-079>083-090>094-220100-
   SOUTHWEST IOWA

CITY           SKY/WX    TMP DP  RH WIND       PRES   REMARKS
ATLANTIC *     CLEAR     86  72  62 S15G22    29.78R HX  92
AUDUBON *      CLEAR     84  73  70 S10G24    29.80R HX  91
CLARINDA *     PTCLDY    88  73  62 S16G23    29.81R HX  96
COUNCIL BLFS * PTCLDY    86  75  70 S14G22    29.76R HX  95
CRESTON *      CLOUDY    86  70  58 S17G26    29.84R HX  90
HARLAN  *      CLEAR     86  72  62 S15G25    29.80R HX  92
LAMONI         CLEAR     85  70  60 S12       29.85R HX  89
6HR MIN TEMP:  81; 6HR MAX TEMP:  90;

RED OAK *      CLEAR     88  73  62 S18G25    29.78R HX  96
SHENANDOAH *   PTCLDY    88  73  62 S15G24    29.78R HX  96
$$

IAZ047>049-059>061-072>074-084-220100-
   CENTRAL IOWA

CITY           SKY/WX    TMP DP  RH WIND       PRES   REMARKS
AMES           CLEAR     84  73  69 S13       29.82S HX  90
6HR MIN TEMP:  84; 6HR MAX TEMP:  88;

ANKENY *       CLEAR     86  72  62 S12G18    29.83R HX  92
BOONE *        CLEAR     84  72  65 SE12G18   29.81S HX  89
CHARITON *     CLEAR     84  70  61 S13       29.85S HX  88
DES MOINES     PTCLDY    86  71  60 SE14      29.81S HX  91
6HR MIN TEMP:  84; 6HR MAX TEMP:  89;

GRINNELL*      CLEAR     83  70  64 SE9       29.88S HX  87
KNOXVILLE *    CLEAR     84  72  65 SE12      29.84R HX  89
MARSHALLTOWN   CLEAR     84  70  62 SE16      29.85R HX  88
6HR MIN TEMP:  84; 6HR MAX TEMP:  90;

NEWTON *       CLEAR     84  72  65 SE12      29.85S HX  89
PELLA *        CLEAR     85  70  60 SE8       29.86R HX  89
PERRY *          N/A     86  73  66 SE9G16    29.80S HX  93
$$

IAZ004>006-015-016-023>025-035-036-220100-
   NORTH CENTRAL IOWA

CITY           SKY/WX    TMP DP  RH WIND       PRES   REMARKS
ALGONA *       CLEAR     84  72  65 S13G18    29.79R HX  89
CLARION *      CLEAR     84  72  65 S14G24    29.81R HX  89
ESTHERVILLE    CLEAR     81  71  71 S14       29.76R HX  85
6HR MIN TEMP:  75; 6HR MAX TEMP:  85;

FORT DODGE *   CLEAR     85  72  65 S10G18    29.80S HX  91
MASON CITY     CLEAR     83  69  62 S14       29.84R HX  86
6HR MIN TEMP:  82; 6HR MAX TEMP:  89;

FOREST CITY *    N/A     82  70  65 S10       29.82R HX  86
WEBSTER CITY * CLEAR     84  72  65 S13G21    29.79S HX  89
IOWA FALLS *     N/A     84  70  62 S10G21    29.85S HX  89
$$

IAZ007>011-017>019-026>030-037>042-050>054-066-220100-
   NORTHEAST IOWA

CITY           SKY/WX    TMP DP  RH WIND       PRES   REMARKS
CEDAR RAPIDS   CLEAR     82  68  62 SE12G18   29.90S HX  85
6HR MIN TEMP:  82; 6HR MAX TEMP:  93;

CHARLES CITY * CLEAR     84  70  61 S12G18    29.86R HX  88
CLINTON *      CLOUDY   N/A N/A N/A S7        29.95S
DECORAH *      PTCLDY    79  64  61 SE10G17   29.88S HX  81
DUBUQUE        CLEAR     76  66  71 S9        29.95S
6HR MIN TEMP:  76; 6HR MAX TEMP:  82;

MONTICELLO *   CLEAR     81  68  65 SE8G14    29.92S HX  83
OELWEIN *      CLEAR     84  70  61 S14G21    29.89R HX  88
WATERLOO       CLEAR     84  67  56 S17G30    29.85R HX  86
6HR MIN TEMP:  84; 6HR MAX TEMP:  91;

$$

IAZ064-065-067-068-078-220100-
   EAST CENTRAL IOWA

CITY           SKY/WX    TMP DP  RH WIND       PRES   REMARKS
DAVENPORT      CLOUDY    81  69  67 S8        29.96S HX  84
6HR MIN TEMP:  77; 6HR MAX TEMP:  84;

IOWA CITY      CLEAR     82  68  62 SE8       29.92S HX  85
6HR MIN TEMP:  82; 6HR MAX TEMP:  92;

MT. PLEASANT * CLEAR     79  70  74 SE6       29.92S HX  82
MUSCATINE *    CLEAR     82  70  65 SE7G16    29.92S HX  86
QUAD CITIES    CLOUDY    82  69  64 SE7       29.93S HX  85
6HR MIN TEMP:  80; 6HR MAX TEMP:  86;

$$

IAZ062-063-075>077-085>089-095>099-220100-
   SOUTHEAST IOWA

CITY           SKY/WX    TMP DP  RH WIND       PRES   REMARKS
BURLINGTON     CLOUDY    83  73  72 S9        29.93S HX  89
6HR MIN TEMP:  76; 6HR MAX TEMP:  85;

FAIRFIELD *    CLEAR     82  70  65 SE9       29.90S HX  86
FORT MADISON * CLEAR     84  73  70 SE8       29.93S HX  91
KEOKUK *       CLEAR     84  70  61 SE9       29.92R HX  88
OSKALOOSA *      N/A     82  70  66 SE9       29.87S HX  86
OTTUMWA        CLEAR     83  71  67 SE12      29.87S HX  87
6HR MIN TEMP:  82; 6HR MAX TEMP:  88;

WASHINGTON *   CLEAR     81  72  74 SE7       29.92S HX  84
$$

ABBREVIATIONS USED IN REMARKS
   TC - TEMPERATURES IN CELSIUS
  WCI - WIND CHILL INDEX
   HX - HEAT INDEX
  VSB - VISIBILITY
$$





USA.gov is the U.S. government's official web portal to all federal, state and local government web resources and services.